Weather History for Pensacola NAS, FL

Change the Weather History Date:

Tuesday, January 15, 2013

  Actual Average Record
Temperature  
Mean Temperature 67 °F -  
Max Temperature 75 °F 59 °F - (-1)
Min Temperature 59 °F 40 °F - (-1)
Cooling Degree Days 2    
Growing Degree Days 17 (Base 50)    
Moisture  
Dew Point 69 °F    
Average Humidity 96    
Maximum Humidity 100    
Minimum Humidity 84    
Precipitation  
Precipitation 0.01 in - - ()
Sea Level Pressure  
Sea Level Pressure 30.00 in    
Wind  
Wind Speed 9 mph (South)    
Max Wind Speed 18 mph    
Max Gust Speed 22 mph    
Visibility 8 miles    
Events Rain    
Averages and records for this station are not official NWS values.
T = Trace of Precipitation, MM = Missing Value Source: NWS Daily Summary

Daily Weather History Graph

Daily Weather History Graph

Search for Another Location

Airport:

Trip Planner

Search our weather history database for the weather conditions in past years. The results will help you decide how hot, cold, wet, or windy it might be!

Date:

Astronomy

Jan. 15, 2013 Rise Set
Actual Time 6:46 AM CST 5:11 PM CST
Civil Twilight 6:20 AM CST 5:37 PM CST
Nautical Twilight 5:51 AM CST 6:06 PM CST
Astronomical Twilight 5:22 AM CST 6:35 PM CST
Moon 9:13 AM CST (1/15) 9:36 PM CST (1/15)
Length of Visible Light 11h 16m
Length of Day
10h 24m
Waxing Crescent, 19% of the Moon is Illuminated
Jan 15
Waxing Crescent
Jan 18
First Quarter
Jan 26
Full
Feb 3
Last Quarter
Feb 10
New

Hourly Weather History & Observations

Time (CST) Temp. Dew Point Humidity Pressure Visibility Wind Dir Wind Speed Gust Speed Precip Events Conditions
12:56 AM 59.0 °F 57.0 °F 93% 30.06 in 6.0 mi Calm Calm - N/A   Overcast
1:56 AM 66.0 °F 64.0 °F 93% 30.04 in 6.0 mi SE 8.1 mph - N/A   Overcast
2:40 AM 68.0 °F 68.0 °F 100% 30.02 in 1.8 mi SSE 6.9 mph - 0.00 in   Overcast
2:56 AM 68.0 °F 68.0 °F 100% 30.02 in 1.5 mi SSE 8.1 mph - 0.00 in   Overcast
3:36 AM 68.0 °F 68.0 °F 100% 30.01 in 3.0 mi South 10.4 mph - N/A   Overcast
3:56 AM 68.0 °F 68.0 °F 100% 30.02 in 5.0 mi South 11.5 mph - N/A   Overcast
4:56 AM 68.0 °F 68.0 °F 100% 30.02 in 6.0 mi South 9.2 mph - N/A   Overcast
5:46 AM 68.0 °F 68.0 °F 100% 30.02 in 7.0 mi South 6.9 mph - N/A   Overcast
5:56 AM 68.0 °F 68.0 °F 100% 30.02 in 7.0 mi SSW 4.6 mph - N/A   Overcast
5:58 AM 68.0 °F 68.0 °F 100% 30.02 in 7.0 mi Variable 3.5 mph - N/A   Mostly Cloudy
6:40 AM 66.2 °F 66.2 °F 100% 30.02 in 7.0 mi South 9.2 mph - N/A   Mostly Cloudy
6:56 AM 68.0 °F 66.9 °F 96% 30.04 in 6.0 mi South 8.1 mph - N/A   Mostly Cloudy
7:56 AM 69.1 °F 69.1 °F 100% 30.04 in 8.0 mi South 10.4 mph - N/A   Overcast
8:56 AM 71.1 °F 69.1 °F 93% 30.05 in 10.0 mi South 11.5 mph - N/A   Overcast
9:08 AM 69.8 °F 69.8 °F 100% 30.05 in 10.0 mi South 12.7 mph - N/A   Overcast
9:15 AM 69.8 °F 69.8 °F 100% 30.05 in 10.0 mi South 11.5 mph - N/A   Overcast
9:36 AM 71.6 °F 69.8 °F 94% 30.04 in 10.0 mi SSE 11.5 mph - N/A   Mostly Cloudy
9:50 AM 71.6 °F 69.8 °F 94% 30.04 in 10.0 mi South 13.8 mph - N/A   Mostly Cloudy
9:56 AM 72.0 °F 70.0 °F 93% 30.05 in 10.0 mi South 12.7 mph - N/A   Mostly Cloudy
10:01 AM 73.4 °F 69.8 °F 88% 30.04 in 10.0 mi SSE 12.7 mph - N/A   Mostly Cloudy
10:47 AM 71.6 °F 69.8 °F 94% 30.03 in 10.0 mi South 11.5 mph - N/A   Overcast
10:56 AM 72.0 °F 69.1 °F 91% 30.03 in 10.0 mi South 11.5 mph - N/A   Overcast
11:56 AM 73.0 °F 69.1 °F 87% 30.01 in 10.0 mi South 11.5 mph - N/A   Overcast
12:56 PM 75.0 °F 70.0 °F 84% 29.99 in 10.0 mi South 12.7 mph 20.7 mph N/A   Overcast
1:25 PM 73.4 °F 69.8 °F 88% 29.97 in 10.0 mi South 12.7 mph - N/A   Overcast
1:47 PM 73.4 °F 69.8 °F 88% 29.97 in 10.0 mi South 10.4 mph - N/A   Overcast
1:56 PM 72.0 °F 69.1 °F 91% 29.98 in 10.0 mi SSW 9.2 mph - N/A   Overcast
2:20 PM 71.6 °F 69.8 °F 94% 29.97 in 7.0 mi South 6.9 mph - 0.00 in Rain Light Rain
2:36 PM 71.6 °F 71.6 °F 100% 29.97 in 9.0 mi South 11.5 mph - 0.00 in   Overcast
2:56 PM 71.1 °F 70.0 °F 96% 29.98 in 9.0 mi South 11.5 mph - 0.00 in   Mostly Cloudy
3:38 PM 71.6 °F 69.8 °F 94% 29.98 in 10.0 mi South 12.7 mph - N/A   Mostly Cloudy
3:56 PM 72.0 °F 69.1 °F 91% 29.99 in 9.0 mi South 11.5 mph - N/A   Mostly Cloudy
4:56 PM 70.0 °F 69.1 °F 97% 29.98 in 7.0 mi South 9.2 mph - N/A   Mostly Cloudy
5:56 PM 70.0 °F 69.1 °F 97% 29.98 in 9.0 mi South 10.4 mph - N/A   Overcast
6:38 PM 69.8 °F 69.8 °F 100% 29.96 in 9.0 mi South 12.7 mph - N/A   Mostly Cloudy
6:56 PM 70.0 °F 69.1 °F 97% 29.97 in 10.0 mi South 12.7 mph - N/A   Overcast
7:33 PM 69.8 °F 69.8 °F 100% 29.96 in 9.0 mi South 15.0 mph - 0.00 in Rain Light Rain
7:56 PM 70.0 °F 69.1 °F 97% 29.97 in 9.0 mi South 15.0 mph - 0.00 in Rain Light Rain
8:13 PM 69.8 °F 69.8 °F 100% 29.95 in 10.0 mi South 13.8 mph - 0.00 in   Overcast
8:36 PM 69.8 °F 69.8 °F 100% 29.95 in 10.0 mi South 17.3 mph - 0.00 in Rain Light Rain
8:52 PM 69.8 °F 69.8 °F 100% 29.96 in 6.0 mi South 18.4 mph 21.9 mph 0.00 in Rain Light Rain
8:56 PM 70.0 °F 69.1 °F 97% 29.96 in 6.0 mi South 16.1 mph 21.9 mph 0.01 in Rain Light Rain
9:15 PM 69.8 °F 69.8 °F 100% 29.97 in 5.0 mi SSW 15.0 mph 21.9 mph 0.00 in Rain Rain
9:26 PM 68.0 °F 68.0 °F 100% 29.97 in 4.0 mi SSW 12.7 mph 21.9 mph N/A Rain Rain
9:33 PM 68.0 °F 68.0 °F 100% 29.97 in 2.5 mi SSW 15.0 mph 21.9 mph N/A Rain Heavy Rain
9:45 PM 68.0 °F 68.0 °F 100% 29.96 in 5.0 mi South 10.4 mph - N/A Rain Light Rain
9:56 PM 68.0 °F 68.0 °F 100% 29.97 in 9.0 mi South 10.4 mph - N/A Rain Light Rain
10:56 PM 68.0 °F 66.9 °F 96% 29.95 in 10.0 mi WSW 4.6 mph - 0.00 in Rain Light Rain
11:22 PM 69.8 °F 68.0 °F 94% 29.94 in 10.0 mi South 13.8 mph - 0.00 in   Overcast
11:33 PM 69.8 °F 68.0 °F 94% 29.94 in 10.0 mi SSW 10.4 mph - 0.00 in   Overcast
11:56 PM 69.1 °F 68.0 °F 96% 29.94 in 10.0 mi South 12.7 mph - 0.00 in   Mostly Cloudy